#timestamp,LO_Frequency,Hit,StdDev 
1549123215.2,286047003.1,N
1549123235.0,286047003.4,N
1549123236.0,286047003.4,N
1549123255.8,286047004.7,N
1549123275.6,286047002.4,N
1549123295.5,286047000.1,N
1549123315.3,286047000.6,N
1549123335.1,286046995.8,N
1549123355.9,286046990.2,N
1549123375.7,286046990.6,N
1549123395.6,286046988.7,N
1549123415.4,286046994.0,N
1549123435.2,286046996.7,N
1549123455.1,286047004.2,N
1549123456.0,286047004.2,N
1549123475.8,286047000.7,N
1549123495.6,286047003.5,N
1549123515.5,286046996.9,N
1549123535.3,286046992.3,N
1549123555.2,286046991.6,N
1549123575.9,286046997.2,N
1549123595.7,286046996.2,N
1549123615.6,286046996.0,N
1549123635.4,286047001.7,N
1549123655.3,286047005.1,N
1549123675.1,286047006.7,N
1549123676.0,286047006.7,N
1549123695.8,286047004.5,N
1549123715.7,286047003.5,N
1549123735.5,286047005.3,N
1549123755.3,286047012.4,N
1549123775.2,286047008.3,N
1549123795.0,286047014.2,N
1549123795.9,286047014.2,N
1549123815.8,286047011.9,N
1549123835.6,286047007.9,N
1549123855.4,286047013.7,N
1549123875.3,286047012.2,N
1549123895.1,286047008.1,N
1549123915.9,286047010.6,N
1549123935.7,286047009.9,N
1549123955.5,286047010.2,N
1549123975.4,286047009.2,N
1549123995.2,286047007.5,N
1549124015.0,286047008.3,N
1549124016.0,286047008.3,N
1549124035.8,286047012.9,N
1549124055.6,286047021.0,Y
1549124075.5,286047014.3,P
1549124095.3,286047018.3,P
1549124115.1,286047016.0,P
1549124135.9,286047013.3,N
1549124155.7,286047013.2,Y
1549124175.6,286047006.0,P
1549124195.4,286047005.4,N
1549124215.2,286047000.5,N
1549124235.1,286047001.6,N
1549124236.0,286047001.6,N
1549124255.8,286046996.9,N
1549124275.7,286046998.8,N
1549124295.5,286047003.8,N
1549124315.3,286046996.8,N
1549124335.2,286046991.7,N
1549124355.0,286046996.6,N
1549124355.9,286046996.6,N
1549124375.7,286046998.2,N
1549124395.6,286047002.0,N
1549124415.4,286047001.4,N
1549124435.3,286047002.6,N
1549124455.1,286047002.0,N
1549124475.9,286047002.1,N
1549124495.7,286046998.4,N
1549124515.5,286046996.9,N
1549124535.4,286046998.8,N
1549124555.2,286047004.7,N
1549124575.0,286047004.4,N
1549124575.9,286047004.4,N
1549124595.8,286047001.3,N
1549124615.6,286047005.6,N
1549124635.5,286047013.5,Y
1549124655.3,286047011.2,P
1549124675.1,286047015.3,P
1549124695.9,286047017.9,P
1549124715.7,286047013.3,N
1549124735.5,286047011.7,N
1549124755.4,286047016.5,Y
1549124775.2,286047006.2,P
1549124795.1,286047009.2,P
1549124796.0,286047009.2,P
1549124815.8,286047009.3,Y
1549124835.6,286047001.2,P
1549124855.5,286046993.4,N
1549124875.3,286046996.2,N
1549124895.2,286046997.5,N
1549124915.9,286046994.4,N
1549124935.7,286046994.4,N
1549124955.6,286046998.6,N
1549124975.4,286047000.1,N
1549124995.2,286047004.1,N
1549125015.1,286047000.2,N
1549125016.0,286047000.2,N
1549125035.8,286046993.2,N
1549125055.7,286046981.0,Y
1549125075.5,286046978.0,P
1549125095.3,286046982.7,N
1549125115.2,286046978.0,N
1549125135.0,286046977.6,N
1549125135.9,286046977.6,N
1549125155.8,286046979.2,N
1549125175.6,286046980.9,N
1549125195.4,286046990.6,N
1549125215.3,286046996.1,N
1549125235.1,286046994.5,N
1549125255.9,286046988.9,N
1549125275.7,286046981.1,N
1549125295.5,286046979.0,N
1549125315.4,286046980.1,N
1549125335.2,286046985.2,N
1549125355.0,286046980.1,N
1549125355.9,286046980.1,N
1549125375.8,286046975.3,Y
1549125395.6,286046992.2,P
1549125415.5,286046994.6,N
1549125435.3,286046993.3,N
1549125455.1,286046990.9,N
1549125475.9,286046989.5,N
1549125495.7,286046987.1,Y
1549125515.6,286046995.9,P
1549125535.4,286046991.9,P
1549125555.2,286046995.3,N
1549125575.1,286047007.2,Y
1549125576.0,286047007.2,P
1549125595.8,286047013.0,N
1549125615.7,286047010.3,N
1549125635.5,286047005.6,N
1549125655.3,286047010.6,N
1549125675.2,286047008.2,N
1549125695.0,286047010.3,N
1549125695.9,286047010.3,N
1549125715.7,286047012.2,N
1549125735.6,286047010.5,N
1549125755.4,286047004.4,N
1549125775.3,286047006.6,N
1549125795.1,286047017.0,Y
1549125815.8,286047004.7,P
1549125835.7,286047004.3,N
1549125855.5,286047003.0,N
1549125875.4,286047001.4,N
1549125895.2,286047003.1,N
1549125915.0,286047004.9,N
1549125915.9,286047004.9,N
1549125935.8,286047007.7,Y
1549125955.6,286047005.2,P
1549125975.5,286047006.4,P
1549125995.3,286047009.0,P
1549126015.1,286047000.0,N
1549126035.9,286046999.9,N
1549126055.7,286047004.1,N
1549126075.5,286047000.0,N
1549126095.4,286046995.2,N
1549126115.2,286047003.6,N
1549126135.1,286047005.3,N
1549126136.0,286047005.3,N
1549126155.8,286047001.4,N
1549126175.6,286047006.1,N
1549126195.5,286047011.9,Y
1549126215.3,286047007.8,P
1549126235.2,286047010.1,P
1549126255.9,286047004.7,N
1549126275.7,286047002.9,N
1549126295.6,286047003.9,N
1549126315.4,286047005.5,N
1549126335.3,286046995.9,N
1549126355.1,286046999.3,N
1549126375.8,286046995.2,N
1549126395.7,286047000.1,N
1549126415.5,286046996.9,N
1549126435.4,286046998.1,N
1549126455.2,286047001.7,N
1549126475.0,286047005.3,N
1549126475.9,286047005.3,N
1549126495.8,286046998.1,N
1549126515.6,286046999.1,N
1549126535.5,286046997.8,N
1549126555.3,286046993.5,N
1549126575.1,286047000.9,N
1549126595.9,286046998.1,N
1549126615.7,286046998.6,N
1549126635.5,286046996.8,N
1549126655.4,286046992.9,N
1549126675.2,286046994.8,N
1549126695.1,286047002.3,N
1549126696.0,286047002.3,N
1549126715.8,286046999.7,N
1549126735.6,286047002.5,N
1549126755.5,286047001.4,N
1549126775.3,286047003.2,N
1549126795.2,286046998.9,N
